589  
ASUS41 KBTV 241630  
RWRBTV  
VERMONT REGIONAL WEATHER ROUNDUP  
NATIONAL WEATHER SERVICE BURLINGTON VT  
1200 PM EDT SUN JUN 24 2018  
 
NOTE: "FAIR" INDICATES FEW OR NO CLOUDS BELOW 12,000 FEET WITH NO  
SIGNIFICANT WEATHER AND/OR S TO VISIBILITY
.  
 
* THESE REPORTS ARE NOT UNDER NWS QUALITY CONTROL AND/OR DO NOT  
REPORT WEATHER SUCH AS PRECIPITATION AND FOG.
 
 
VTZ001>019-241700-  
_____VERMONT_____  
 
 
CITY SKY/WX TMP DP RH WIND PRES REMARKS
 
BURLINGTON CLOUDY 66 58 75 N6 29.82S  
MONTPELIER CLOUDY 65 60 84 NW6 29.86F  
MORRISVILLE CLOUDY 63 58 83 N5 29.84R  
ST. JOHNSBURY* N/A 61 56 83 MISG 29.82S  
LYNDONVILLE* CLOUDY 60 56 89 CALM 29.86S  
MIDDLEBURY* CLOUDY 65 60 85 CALM 29.83R  
RUTLAND* CLOUDY 64 61 90 CALM 29.84R  
SPRINGFIELD CLOUDY 68 63 84 VRB3 29.82F  
HIGHGATE* CLOUDY 64 60 88 CALM 29.83S  
NEWPORT* CLOUDY 61 57 85 CALM 29.85R  
BENNINGTON CLOUDY 70 63 78 N5 29.83S  
ISLAND POND* N/A 63 N/A N/A S2 N/A  
GALLUP MILLS* N/A 61 N/A N/A MISG N/A  
UNION VILLAGE* N/A 64 N/A N/A MISG N/A  
MT. MANSFIELD* N/A 54 N/A N/A NW13 N/A  
 
_____LAKE CHAMPLAIN_____  
 
 
CITY SKY/WX TMP DP RH WIND PRES REMARKS
 
BURTON ISLAND* N/A 63 59 88 SE1 N/A  
COLCHESTER RF* N/A 61 57 88 S3 N/A  
DIAMOND ISL* N/A N/A N/A N/A NW5 N/A  
 

 
 
NYZ007-026>031-035-052-083-087-241700-  
_____NORTHERN NEW YORK_____  
 
 
CITY SKY/WX TMP DP RH WIND PRES REMARKS
 
PLATTSBURGH CLOUDY 67 60 78 CALM 29.82S  
SARANAC LAKE CLOUDY 63 57 81 N5 29.84S  
MASSENA PTSUNNY 67 62 84 CALM 29.85R  
OGDENSBURG* FAIR 68 59 72 N3 29.84S  
POTSDAM* CLOUDY 66 59 77 CALM 29.84R  
STARK FALLS* N/A 66 N/A N/A N2 N/A  
WATERTOWN CLOUDY 67 61 81 NE8 29.83R  
FT DRUM CLOUDY 65 65 100 NE5 29.84R  
ALBANY CLOUDY 72 63 73 S8 29.81S  
GLENS FALLS CLOUDY 68 63 84 CALM 29.82R  
 

 
NHZ002-005-011-241700-  
_____NEW HAMPSHIRE_____  
 
 
CITY SKY/WX TMP DP RH WIND PRES REMARKS
 
LEBANON CLOUDY 66 57 72 VRB3 29.82S FOG  
KEENE FAIR 76 63 64 N5 29.82F  
MT WASHINGTON FOG 50 50 100 W16 N/A VSB 1/16  
PLYMOUTH FAIR 69 60 73 NW6 29.81S  
WHITEFIELD CLOUDY 62 58 86 CALM 29.84R  
 

 
 
_____REGIONAL QUEBEC LOCATIONS_____  
 
 
CITY SKY/WX TMP DP RH WIND PRES REMARKS
 
MONTREAL CLOUDY 68 61 77 S8 29.82R  
QUEBEC CITY LGT RAIN 63 54 72 E15 29.81R  
SHERBROOKE CLOUDY 61 57 88 SW2 29.83S  
 
_____REGIONAL ONTARIO LOCATIONS_____  
 
 
CITY SKY/WX TMP DP RH WIND PRES REMARKS
 
OTTAWA PTSUNNY 73 61 64 NW7 29.83S  
 
______KEY______  
VSB - VISIBILITY IN MILES  
WCI - WIND CHILL INDEX  
HX - HEAT INDEX  

 
NNNN  
 
 
CLICK HERE TO GO TO PREVIOUS BULLETINS.

The Nexlab VT Page
The Nexlab NY Page Main Text Page